Location: Newark
(41.8083°N, 72.2500°W)
Time: 11:47:32
(UTC+00:00)

Explorer 11/Cluster Stage 4 - Pass Details

Date: 08 December 2021
Orbit: 467 x 1255 km, 28.8° (Epoch: 24 January)

Event Time Altitude Azimuth Distance (km) Brightness Sun altitude
Rises 07:40:55 0° 249° (WSW) 3,322 - -48.1°
Reaches altitude 10° 07:43:41 10° 236° (SW) 2,526 - -47.6°
Maximum altitude 07:48:33 24° 184° (S) 1,906 - -46.7°
Exits shadow 07:53:38 12° 136° (SE) 2,818 9.6 -45.7°
Drops below altitude 10° 07:54:10 10° 133° (SE) 2,962 9.8 -45.6°
Sets 07:57:43 0° 121° (ESE) 4,030 10.7 -45.0°
